Hastings, NE

8:44 AM CDT on April 24, 2018 (GMT -0500)
Hastings Municipal

Weather History for KHSI - March, 2014

Change the Weather History Date:

Wednesday, March 12, 2014

  Actual Average Record
Temperature  
Mean Temperature 40 °F 38 °F  
Max Temperature 58 °F 49 °F 78 °F (1916)
Min Temperature 22 °F 28 °F -6 °F (1998)
Degree Days  
Heating Degree Days 25 27  
Month to date heating degree days 402 345  
Since 1 July heating degree days 5282 4975  
Cooling Degree Days 0 0  
Month to date cooling degree days 0 0  
Year to date cooling degree days 0 0  
Moisture  
Dew Point 20 °F    
Average Humidity 52    
Maximum Humidity 88    
Minimum Humidity 16    
Precipitation  
Precipitation 0.00 in 0.05 in 0.98 in (1961)
Month to date precipitation T 0.48  
Year to date precipitation 0.71 1.38  
Snow  
Snow 0.00 in 0.10 in 5.00 in (1909)
Month to date snowfall T 2.2  
Since 1 July snowfall 18.3 24.6  
Snow Depth 0.00 in    
Sea Level Pressure  
Sea Level Pressure 30.19 in    
Wind  
Wind Speed 12 mph (WNW)    
Max Wind Speed 30 mph    
Max Gust Speed 49 mph    
Visibility 10 miles    
Events      
T = Trace of Precipitation, MM = Missing Value Source: NWS Daily Summary

Daily Weather History Graph

Daily Weather History Graph

Search for Another Location

Airport or City:

Astronomy

Mar. 12, 2014 Rise Set
Actual Time 7:50 AM CDT 7:37 PM CDT
Civil Twilight 7:22 AM CDT 8:04 PM CDT
Nautical Twilight 6:51 AM CDT 8:36 PM CDT
Astronomical Twilight 6:19 AM CDT 9:08 PM CDT
Moon 4:08 PM CDT (3/12) 5:23 AM CDT (3/12)
Length of Visible Light 12h 41m
Length of Day
11h 47m
Waxing Gibbous, 85% of the Moon is Illuminated
Mar 12
Waxing Gibbous
Mar 16
Full
Mar 23
Last Quarter
Mar 30
New
Apr 7
First Quarter

Hourly Weather History & Observations

Time (CDT) Temp. Windchill Dew Point Humidity Pressure Visibility Wind Dir Wind Speed Gust Speed Precip Events Conditions
12:53 AM 33.1 °F 24.4 °F 27.0 °F 78% 30.21 in 10.0 mi NNW 11.5 mph - N/A   Clear
1:53 AM 30.0 °F 21.1 °F 26.1 °F 85% 30.22 in 10.0 mi NNW 10.4 mph - N/A   Clear
2:53 AM 26.1 °F 16.8 °F 23.0 °F 88% 30.24 in 10.0 mi NW 9.2 mph - N/A   Clear
3:53 AM 26.1 °F 17.6 °F 23.0 °F 88% 30.24 in 10.0 mi WNW 8.1 mph - N/A   Clear
4:53 AM 24.1 °F 16.0 °F 21.0 °F 88% 30.23 in 10.0 mi WNW 6.9 mph - N/A   Clear
5:53 AM 25.0 °F 15.5 °F 21.9 °F 88% 30.23 in 10.0 mi West 9.2 mph - N/A   Partly Cloudy
6:53 AM 27.0 °F 17.3 °F 23.0 °F 85% 30.25 in 10.0 mi West 10.4 mph - N/A   Clear
7:53 AM 26.1 °F 16.2 °F 21.9 °F 84% 30.25 in 10.0 mi WNW 10.4 mph - N/A   Clear
8:53 AM 30.9 °F 21.7 °F 25.0 °F 79% 30.25 in 10.0 mi WNW 11.5 mph - N/A   Clear
9:53 AM 37.9 °F 28.9 °F 28.0 °F 68% 30.24 in 10.0 mi WNW 16.1 mph - N/A   Clear
10:53 AM 45.0 °F 37.6 °F 28.9 °F 53% 30.24 in 10.0 mi NW 17.3 mph 27.6 mph N/A   Clear
11:53 AM 48.9 °F - 25.0 °F 39% 30.23 in 10.0 mi NW 17.3 mph - N/A   Clear
12:53 PM 51.1 °F - 23.0 °F 33% 30.22 in 10.0 mi NW 24.2 mph 29.9 mph N/A   Partly Cloudy
1:53 PM 54.0 °F - 21.9 °F 29% 30.20 in 10.0 mi NNW 23.0 mph 33.4 mph N/A   Mostly Cloudy
2:53 PM 55.0 °F - 21.0 °F 27% 30.17 in 10.0 mi NNW 19.6 mph 31.1 mph N/A   Scattered Clouds
3:53 PM 55.9 °F - 19.0 °F 24% 30.14 in 10.0 mi WNW 19.6 mph 28.8 mph N/A   Clear
4:53 PM 57.0 °F - 15.1 °F 19% 30.13 in 10.0 mi WNW 15.0 mph 27.6 mph N/A   Clear
5:53 PM 57.0 °F - 12.9 °F 18% 30.11 in 10.0 mi WNW 15.0 mph 25.3 mph N/A   Clear
6:53 PM 55.0 °F - 10.9 °F 17% 30.10 in 10.0 mi WNW 11.5 mph - N/A   Clear
7:53 PM 42.1 °F 38.4 °F 10.0 °F 27% 30.12 in 10.0 mi WNW 5.8 mph - N/A   Clear
8:53 PM 35.1 °F 30.1 °F 9.0 °F 34% 30.14 in 10.0 mi West 5.8 mph - N/A   Clear
9:53 PM 37.0 °F 33.3 °F 12.0 °F 36% 30.13 in 10.0 mi West 4.6 mph - N/A   Clear
10:53 PM 35.1 °F 30.1 °F 12.9 °F 40% 30.12 in 10.0 mi WSW 5.8 mph - N/A   Clear
11:53 PM 36.0 °F 29.6 °F 15.1 °F 43% 30.11 in 10.0 mi WSW 8.1 mph - N/A   Clear